Time,TemperatureF,DewpointF,PressureIn,WindDirection,WindDirectionDegrees,WindSpeedMPH,WindSpeedGustMPH,Humidity,HourlyPrecipIn,Conditions,Clouds,dailyrainin,SoftwareType,DateUTC
2013-07-16 00:00:00,74.5,72.7,30.18,SE,137,0.0,0.0,94,0.00,,---,0.00,VWS V14.01,2013-07-16 04:00:00,
2013-07-16 00:01:00,73.0,71.5,30.18,SE,137,0.0,0.0,95,0.00,,---,0.00,VWS V14.01,2013-07-16 04:01:00,
2013-07-16 00:06:00,72.9,71.4,30.18,SE,137,0.0,0.0,95,0.00,,---,0.00,VWS V14.01,2013-07-16 04:06:00,
2013-07-16 00:11:00,72.8,71.3,30.18,SE,137,0.0,0.0,95,0.00,,---,0.00,VWS V14.01,2013-07-16 04:11:00,
2013-07-16 00:16:00,72.7,71.2,30.18,SE,137,0.0,0.0,95,0.00,,---,0.00,VWS V14.01,2013-07-16 04:16:00,
2013-07-16 00:21:00,72.6,71.1,30.18,SE,137,0.0,0.0,95,0.00,,---,0.00,VWS V14.01,2013-07-16 04:21:00,
2013-07-16 00:26:00,72.5,71.0,30.18,SE,137,0.0,0.0,95,0.00,,---,0.00,VWS V14.01,2013-07-16 04:26:00,
2013-07-16 00:30:00,73.8,72.0,30.18,SE,137,0.0,0.0,94,0.00,,---,0.00,VWS V14.01,2013-07-16 04:30:00,
2013-07-16 00:31:00,72.4,70.9,30.18,SE,137,0.0,0.0,95,0.00,,---,0.00,VWS V14.01,2013-07-16 04:31:00,
2013-07-16 00:36:00,72.4,70.9,30.18,SE,137,0.0,0.0,95,0.00,,---,0.00,VWS V14.01,2013-07-16 04:36:00,
2013-07-16 00:41:00,72.3,70.8,30.18,SE,137,0.0,0.0,95,0.00,,---,0.00,VWS V14.01,2013-07-16 04:41:00,
2013-07-16 00:46:00,72.2,70.7,30.18,SE,137,0.0,0.0,95,0.00,,---,0.00,VWS V14.01,2013-07-16 04:46:00,
2013-07-16 00:51:00,72.1,70.6,30.18,SE,137,0.0,0.0,95,0.00,,---,0.00,VWS V14.01,2013-07-16 04:51:00,
2013-07-16 00:56:00,72.0,70.5,30.18,SE,137,0.0,0.0,95,0.00,,---,0.00,VWS V14.01,2013-07-16 04:56:00,
2013-07-16 01:00:00,73.0,71.5,30.18,SE,137,0.0,0.0,95,0.00,,---,0.00,VWS V14.01,2013-07-16 05:00:00,
2013-07-16 01:01:00,72.0,70.5,30.18,SE,137,0.0,0.0,95,0.00,,---,0.00,VWS V14.01,2013-07-16 05:01:00,
2013-07-16 01:06:00,71.9,70.4,30.18,SE,137,0.0,0.0,95,0.00,,---,0.00,VWS V14.01,2013-07-16 05:06:00,
2013-07-16 01:11:00,71.8,70.3,30.18,SE,137,0.0,0.0,95,0.00,,---,0.00,VWS V14.01,2013-07-16 05:11:00,
2013-07-16 01:16:00,71.7,70.2,30.17,SE,137,0.0,0.0,95,0.00,,---,0.00,VWS V14.01,2013-07-16 05:16:00,
2013-07-16 01:21:00,71.6,70.1,30.17,SE,137,0.0,0.0,95,0.00,,---,0.00,VWS V14.01,2013-07-16 05:21:00,
2013-07-16 01:26:00,71.5,70.3,30.17,SE,137,0.0,0.0,96,0.00,,---,0.00,VWS V14.01,2013-07-16 05:26:00,
2013-07-16 01:30:00,72.4,70.9,30.18,SE,137,0.0,0.0,95,0.00,,---,0.00,VWS V14.01,2013-07-16 05:30:00,
2013-07-16 01:31:00,71.5,70.0,30.17,SE,137,0.0,0.0,95,0.00,,---,0.00,VWS V14.01,2013-07-16 05:31:00,
2013-07-16 01:36:00,71.4,69.9,30.17,SE,137,0.0,0.0,95,0.00,,---,0.00,VWS V14.01,2013-07-16 05:36:00,
2013-07-16 01:41:00,71.3,69.8,30.17,SE,137,0.0,0.0,95,0.00,,---,0.00,VWS V14.01,2013-07-16 05:41:00,
2013-07-16 01:46:00,71.3,69.8,30.17,SE,137,0.0,0.0,95,0.00,,---,0.00,VWS V14.01,2013-07-16 05:46:00,
2013-07-16 01:51:00,71.2,69.7,30.17,SE,137,0.0,0.0,95,0.00,,---,0.00,VWS V14.01,2013-07-16 05:51:00,
2013-07-16 01:56:00,71.1,69.9,30.17,SE,137,0.0,0.0,96,0.00,,---,0.00,VWS V14.01,2013-07-16 05:56:00,
2013-07-16 02:00:00,71.9,70.4,30.18,SE,137,0.0,0.0,95,0.00,,---,0.00,VWS V14.01,2013-07-16 06:00:00,
2013-07-16 02:01:00,71.0,69.8,30.17,SE,137,0.0,0.0,96,0.00,,---,0.00,VWS V14.01,2013-07-16 06:01:00,
2013-07-16 02:06:00,70.9,69.7,30.17,SE,137,0.0,0.0,96,0.00,,---,0.00,VWS V14.01,2013-07-16 06:06:00,
2013-07-16 02:11:00,70.9,69.7,30.17,SE,137,0.0,0.0,96,0.00,,---,0.00,VWS V14.01,2013-07-16 06:11:00,
2013-07-16 02:16:00,70.8,69.6,30.17,SE,137,0.0,0.0,96,0.00,,---,0.00,VWS V14.01,2013-07-16 06:16:00,
2013-07-16 02:21:00,70.7,69.5,30.17,SE,137,0.0,0.0,96,0.00,,---,0.00,VWS V14.01,2013-07-16 06:21:00,
2013-07-16 02:26:00,70.6,69.4,30.17,SE,137,0.0,0.0,96,0.00,,---,0.00,VWS V14.01,2013-07-16 06:26:00,
2013-07-16 02:30:00,71.5,70.0,30.17,SE,137,0.0,0.0,95,0.00,,---,0.00,VWS V14.01,2013-07-16 06:30:00,
2013-07-16 02:31:00,70.6,69.4,30.17,SE,137,0.0,0.0,96,0.00,,---,0.00,VWS V14.01,2013-07-16 06:31:00,
2013-07-16 02:36:00,70.5,69.3,30.17,SE,137,0.0,0.0,96,0.00,,---,0.00,VWS V14.01,2013-07-16 06:36:00,
2013-07-16 02:41:00,70.4,69.2,30.17,SE,137,0.0,0.0,96,0.00,,---,0.00,VWS V14.01,2013-07-16 06:41:00,
2013-07-16 02:46:00,70.3,69.1,30.18,SE,137,0.0,0.0,96,0.00,,---,0.00,VWS V14.01,2013-07-16 06:46:00,
2013-07-16 02:51:00,70.2,69.0,30.18,SE,137,0.0,0.0,96,0.00,,---,0.00,VWS V14.01,2013-07-16 06:51:00,
2013-07-16 02:56:00,70.2,69.0,30.18,SE,137,0.0,0.0,96,0.00,,---,0.00,VWS V14.01,2013-07-16 06:56:00,
2013-07-16 03:00:00,71.0,69.8,30.17,SE,137,0.0,0.0,96,0.00,,---,0.00,VWS V14.01,2013-07-16 07:00:00,
2013-07-16 03:01:00,70.1,68.9,30.18,SE,137,0.0,0.0,96,0.00,,---,0.00,VWS V14.01,2013-07-16 07:01:00,
2013-07-16 03:06:00,70.1,68.9,30.17,SE,137,0.0,0.0,96,0.00,,---,0.00,VWS V14.01,2013-07-16 07:06:00,
2013-07-16 03:11:00,70.0,68.8,30.17,SE,137,0.0,0.0,96,0.00,,---,0.00,VWS V14.01,2013-07-16 07:11:00,
2013-07-16 03:16:00,69.9,68.7,30.17,SE,137,0.0,0.0,96,0.00,,---,0.00,VWS V14.01,2013-07-16 07:16:00,
2013-07-16 03:21:00,69.9,68.7,30.17,SE,137,0.0,0.0,96,0.00,,---,0.00,VWS V14.01,2013-07-16 07:21:00,
2013-07-16 03:26:00,69.8,68.6,30.17,SE,137,0.0,0.0,96,0.00,,---,0.00,VWS V14.01,2013-07-16 07:26:00,
2013-07-16 03:30:00,70.6,69.4,30.17,SE,137,0.0,0.0,96,0.00,,---,0.00,VWS V14.01,2013-07-16 07:30:00,
2013-07-16 03:31:00,69.8,68.6,30.17,SE,137,0.0,0.0,96,0.00,,---,0.00,VWS V14.01,2013-07-16 07:31:00,
2013-07-16 03:36:00,69.7,68.5,30.17,SE,137,0.0,0.0,96,0.00,,---,0.00,VWS V14.01,2013-07-16 07:36:00,
2013-07-16 03:41:00,69.6,68.4,30.17,SE,137,0.0,0.0,96,0.00,,---,0.00,VWS V14.01,2013-07-16 07:41:00,
2013-07-16 03:46:00,69.6,68.4,30.17,SE,137,0.0,0.0,96,0.00,,---,0.00,VWS V14.01,2013-07-16 07:46:00,
2013-07-16 03:51:00,69.5,68.3,30.17,SE,137,0.0,0.0,96,0.00,,---,0.00,VWS V14.01,2013-07-16 07:51:00,
2013-07-16 03:56:00,69.4,68.2,30.17,SE,137,0.0,0.0,96,0.00,,---,0.00,VWS V14.01,2013-07-16 07:56:00,
2013-07-16 04:00:00,70.1,68.9,30.18,SE,137,0.0,0.0,96,0.00,,---,0.00,VWS V14.01,2013-07-16 08:00:00,
2013-07-16 04:01:00,69.4,68.2,30.17,SE,137,0.0,0.0,96,0.00,,---,0.00,VWS V14.01,2013-07-16 08:01:00,
2013-07-16 04:06:00,69.3,68.1,30.17,SE,137,0.0,0.0,96,0.00,,---,0.00,VWS V14.01,2013-07-16 08:06:00,
2013-07-16 04:11:00,69.3,68.4,30.17,SE,137,0.0,0.0,97,0.00,,---,0.00,VWS V14.01,2013-07-16 08:11:00,
2013-07-16 04:16:00,69.2,68.3,30.17,SE,137,0.0,0.0,97,0.00,,---,0.00,VWS V14.01,2013-07-16 08:16:00,
2013-07-16 04:21:00,69.2,68.3,30.17,SE,137,0.0,0.0,97,0.00,,---,0.00,VWS V14.01,2013-07-16 08:21:00,
2013-07-16 04:26:00,69.1,68.2,30.17,SE,137,0.0,0.0,97,0.00,,---,0.00,VWS V14.01,2013-07-16 08:26:00,
2013-07-16 04:30:00,69.8,68.6,30.17,SE,137,0.0,0.0,96,0.00,,---,0.00,VWS V14.01,2013-07-16 08:30:00,
2013-07-16 04:31:00,69.0,68.1,30.17,SE,137,0.0,0.0,97,0.00,,---,0.00,VWS V14.01,2013-07-16 08:31:00,
2013-07-16 04:36:00,69.0,68.1,30.17,SE,137,0.0,0.0,97,0.00,,---,0.00,VWS V14.01,2013-07-16 08:36:00,
2013-07-16 04:41:00,68.9,68.0,30.17,SE,137,0.0,0.0,97,0.00,,---,0.00,VWS V14.01,2013-07-16 08:41:00,
2013-07-16 04:46:00,68.9,68.0,30.17,SE,137,0.0,0.0,97,0.00,,---,0.00,VWS V14.01,2013-07-16 08:46:00,
2013-07-16 04:51:00,68.9,68.0,30.17,SE,137,0.0,0.0,97,0.00,,---,0.00,VWS V14.01,2013-07-16 08:51:00,
2013-07-16 04:56:00,68.8,67.9,30.17,SE,137,0.0,0.0,97,0.00,,---,0.00,VWS V14.01,2013-07-16 08:56:00,
2013-07-16 05:00:00,69.4,68.2,30.17,SE,137,0.0,0.0,96,0.00,,---,0.00,VWS V14.01,2013-07-16 09:00:00,
2013-07-16 05:01:00,68.8,67.9,30.17,SE,137,0.0,0.0,97,0.00,,---,0.00,VWS V14.01,2013-07-16 09:01:00,
2013-07-16 05:06:00,68.7,67.8,30.17,SE,137,0.0,0.0,97,0.00,,---,0.00,VWS V14.01,2013-07-16 09:06:00,
2013-07-16 05:11:00,68.6,67.7,30.17,SE,137,0.0,0.0,97,0.00,,---,0.00,VWS V14.01,2013-07-16 09:11:00,
2013-07-16 05:16:00,68.6,67.7,30.17,SE,137,0.0,0.0,97,0.00,,---,0.00,VWS V14.01,2013-07-16 09:16:00,
2013-07-16 05:21:00,68.6,67.7,30.17,SE,137,0.0,0.0,97,0.00,,---,0.00,VWS V14.01,2013-07-16 09:21:00,
2013-07-16 05:26:00,68.5,67.6,30.17,SE,137,0.0,0.0,97,0.00,,---,0.00,VWS V14.01,2013-07-16 09:26:00,
2013-07-16 05:30:00,69.0,68.1,30.17,SE,137,0.0,0.0,97,0.00,,---,0.00,VWS V14.01,2013-07-16 09:30:00,
2013-07-16 05:31:00,68.5,67.6,30.17,SE,137,0.0,0.0,97,0.00,,---,0.00,VWS V14.01,2013-07-16 09:31:00,
2013-07-16 05:36:00,68.5,67.6,30.17,SE,137,0.0,0.0,97,0.00,,---,0.00,VWS V14.01,2013-07-16 09:36:00,
2013-07-16 05:41:00,68.4,67.5,30.17,SE,137,0.0,0.0,97,0.00,,---,0.00,VWS V14.01,2013-07-16 09:41:00,
2013-07-16 05:46:00,68.4,67.5,30.17,SE,137,0.0,0.0,97,0.00,,---,0.00,VWS V14.01,2013-07-16 09:46:00,
2013-07-16 05:51:00,68.4,67.5,30.18,SE,137,0.0,0.0,97,0.00,,---,0.00,VWS V14.01,2013-07-16 09:51:00,
2013-07-16 05:56:00,68.3,67.4,30.18,SE,137,0.0,0.0,97,0.00,,---,0.00,VWS V14.01,2013-07-16 09:56:00,
2013-07-16 06:00:00,68.8,67.9,30.17,SE,137,0.0,0.0,97,0.00,,---,0.00,VWS V14.01,2013-07-16 10:00:00,
2013-07-16 06:01:00,68.3,67.4,30.18,SE,137,0.0,0.0,97,0.00,,---,0.00,VWS V14.01,2013-07-16 10:01:00,
2013-07-16 06:06:00,68.3,67.4,30.18,SE,137,0.0,0.0,97,0.00,,---,0.00,VWS V14.01,2013-07-16 10:06:00,
2013-07-16 06:11:00,68.2,67.3,30.18,SE,137,0.0,0.0,97,0.00,,---,0.00,VWS V14.01,2013-07-16 10:11:00,
2013-07-16 06:16:00,68.2,67.3,30.18,SE,137,0.0,0.0,97,0.00,,---,0.00,VWS V14.01,2013-07-16 10:16:00,
2013-07-16 06:21:00,68.2,67.3,30.18,SE,137,0.0,0.0,97,0.00,,---,0.00,VWS V14.01,2013-07-16 10:21:00,
2013-07-16 06:26:00,68.2,67.3,30.18,SE,137,0.0,0.0,97,0.00,,---,0.00,VWS V14.01,2013-07-16 10:26:00,
2013-07-16 06:30:00,68.5,67.6,30.17,SE,137,0.0,0.0,97,0.00,,---,0.00,VWS V14.01,2013-07-16 10:30:00,
2013-07-16 06:31:00,68.2,67.3,30.18,SE,137,0.0,0.0,97,0.00,,---,0.00,VWS V14.01,2013-07-16 10:31:00,
2013-07-16 06:36:00,68.2,67.3,30.17,SE,137,0.0,0.0,97,0.00,,---,0.00,VWS V14.01,2013-07-16 10:36:00,
2013-07-16 06:41:00,68.2,67.3,30.18,SE,137,0.0,0.0,97,0.00,,---,0.00,VWS V14.01,2013-07-16 10:41:00,
2013-07-16 06:46:00,68.2,67.3,30.18,SE,137,0.0,0.0,97,0.00,,---,0.00,VWS V14.01,2013-07-16 10:46:00,
2013-07-16 06:51:00,68.2,67.3,30.18,SE,137,0.0,0.0,97,0.00,,---,0.00,VWS V14.01,2013-07-16 10:51:00,
2013-07-16 06:56:00,68.3,67.4,30.18,SE,137,0.0,0.0,97,0.00,,---,0.00,VWS V14.01,2013-07-16 10:56:00,
2013-07-16 07:00:00,68.3,67.4,30.18,SE,137,0.0,0.0,97,0.00,,---,0.00,VWS V14.01,2013-07-16 11:00:00,
2013-07-16 07:01:00,68.4,67.5,30.18,SE,137,0.0,0.0,97,0.00,,---,0.00,VWS V14.01,2013-07-16 11:01:00,
2013-07-16 07:06:00,68.5,67.9,30.18,SE,137,0.0,0.0,98,0.00,,---,0.00,VWS V14.01,2013-07-16 11:06:00,
2013-07-16 07:11:00,68.6,68.0,30.18,SE,137,0.0,0.0,98,0.00,,---,0.00,VWS V14.01,2013-07-16 11:11:00,
2013-07-16 07:16:00,68.7,68.1,30.18,SE,137,0.0,0.0,98,0.00,,---,0.00,VWS V14.01,2013-07-16 11:16:00,
2013-07-16 07:21:00,69.0,68.4,30.18,SE,137,0.0,0.0,98,0.00,,---,0.00,VWS V14.01,2013-07-16 11:21:00,
2013-07-16 07:26:00,69.1,68.5,30.19,SE,137,0.0,0.0,98,0.00,,---,0.00,VWS V14.01,2013-07-16 11:26:00,
2013-07-16 07:30:00,68.2,67.3,30.18,SE,137,0.0,0.0,97,0.00,,---,0.00,VWS V14.01,2013-07-16 11:30:00,
2013-07-16 07:31:00,69.2,68.6,30.19,SE,137,0.0,0.0,98,0.00,,---,0.00,VWS V14.01,2013-07-16 11:31:00,
2013-07-16 07:36:00,69.6,69.0,30.19,SE,137,0.0,0.0,98,0.00,,---,0.00,VWS V14.01,2013-07-16 11:36:00,
2013-07-16 07:41:00,69.8,69.5,30.19,SE,137,0.0,0.0,99,0.00,,---,0.00,VWS V14.01,2013-07-16 11:41:00,
2013-07-16 07:46:00,70.0,69.7,30.19,SE,137,0.0,0.0,99,0.00,,---,0.00,VWS V14.01,2013-07-16 11:46:00,
2013-07-16 07:51:00,70.4,70.1,30.19,SE,137,0.0,0.0,99,0.00,,---,0.00,VWS V14.01,2013-07-16 11:51:00,
2013-07-16 07:56:00,70.9,70.6,30.20,SE,137,0.0,0.0,99,0.00,,---,0.00,VWS V14.01,2013-07-16 11:56:00,
2013-07-16 08:00:00,71.3,71.0,30.19,SE,137,0.0,0.0,99,0.00,,---,0.00,VWS V14.01,2013-07-16 12:00:00,
2013-07-16 08:05:00,71.9,71.6,30.20,SE,137,0.0,0.0,99,0.00,,---,0.00,VWS V14.01,2013-07-16 12:05:00,
2013-07-16 08:10:00,72.3,72.0,30.20,SE,137,0.0,0.0,99,0.00,,---,0.00,VWS V14.01,2013-07-16 12:10:00,
2013-07-16 08:15:00,72.6,72.3,30.20,SE,137,0.0,0.0,99,0.00,,---,0.00,VWS V14.01,2013-07-16 12:15:00,
2013-07-16 08:20:00,73.0,72.7,30.20,SE,137,0.0,0.0,99,0.00,,---,0.00,VWS V14.01,2013-07-16 12:20:00,
2013-07-16 08:25:00,73.4,73.1,30.20,SE,137,0.0,0.0,99,0.00,,---,0.00,VWS V14.01,2013-07-16 12:25:00,
2013-07-16 08:30:00,73.8,73.5,30.19,SE,137,0.0,0.0,99,0.00,,---,0.00,VWS V14.01,2013-07-16 12:30:00,
2013-07-16 08:35:00,74.2,73.9,30.19,SE,137,0.0,0.0,99,0.00,,---,0.00,VWS V14.01,2013-07-16 12:35:00,
2013-07-16 08:40:00,74.7,74.4,30.20,SE,137,0.0,0.0,99,0.00,,---,0.00,VWS V14.01,2013-07-16 12:40:00,
2013-07-16 08:45:00,75.1,74.5,30.19,SE,137,0.0,0.0,98,0.00,,---,0.00,VWS V14.01,2013-07-16 12:45:00,
2013-07-16 08:50:00,75.7,74.5,30.20,SE,137,0.0,0.0,96,0.00,,---,0.00,VWS V14.01,2013-07-16 12:50:00,
2013-07-16 08:55:00,76.3,74.4,30.20,WSW,252,0.0,0.0,94,0.00,,---,0.00,VWS V14.01,2013-07-16 12:55:00,
2013-07-16 09:00:00,76.8,74.3,30.20,WSW,252,0.0,0.0,92,0.00,,---,0.00,VWS V14.01,2013-07-16 13:00:00,
2013-07-16 09:05:00,77.4,74.6,30.20,WSW,252,0.0,0.0,91,0.00,,---,0.00,VWS V14.01,2013-07-16 13:05:00,
2013-07-16 09:10:00,78.0,74.8,30.20,WSW,252,0.0,0.0,90,0.00,,---,0.00,VWS V14.01,2013-07-16 13:10:00,
2013-07-16 09:15:00,78.5,75.0,30.20,WSW,252,0.0,0.0,89,0.00,,---,0.00,VWS V14.01,2013-07-16 13:15:00,
2013-07-16 09:20:00,78.9,75.1,30.20,WSW,252,0.0,0.0,88,0.00,,---,0.00,VWS V14.01,2013-07-16 13:20:00,
2013-07-16 09:25:00,79.4,75.5,30.19,WSW,252,0.0,0.0,88,0.00,,---,0.00,VWS V14.01,2013-07-16 13:25:00,
2013-07-16 09:30:00,79.7,75.2,30.19,WSW,252,0.0,0.0,86,0.00,,---,0.00,VWS V14.01,2013-07-16 13:30:00,
2013-07-16 09:35:00,80.2,76.0,30.19,WSW,252,0.0,0.0,87,0.00,,---,0.00,VWS V14.01,2013-07-16 13:35:00,
2013-07-16 09:40:00,80.8,76.6,30.19,WSW,252,0.0,0.0,87,0.00,,---,0.00,VWS V14.01,2013-07-16 13:40:00,
2013-07-16 09:45:00,81.2,76.3,30.19,WSW,252,0.0,1.0,85,0.00,,---,0.00,VWS V14.01,2013-07-16 13:45:00,
2013-07-16 09:50:00,81.8,76.1,30.19,WSW,254,0.0,1.0,83,0.00,,---,0.00,VWS V14.01,2013-07-16 13:50:00,
2013-07-16 09:55:00,82.2,76.5,30.19,WSW,254,0.0,1.0,83,0.00,,---,0.00,VWS V14.01,2013-07-16 13:55:00,
2013-07-16 10:00:00,82.6,76.2,30.19,WSW,254,0.0,0.0,81,0.00,,---,0.00,VWS V14.01,2013-07-16 14:00:00,
2013-07-16 10:05:00,83.0,75.4,30.19,West,275,1.0,5.0,78,0.00,,---,0.00,VWS V14.01,2013-07-16 14:05:00,
2013-07-16 10:10:00,83.5,75.5,30.19,West,262,0.0,5.0,77,0.00,,---,0.00,VWS V14.01,2013-07-16 14:10:00,
2013-07-16 10:15:00,83.8,76.2,30.19,West,262,0.0,5.0,78,0.00,,---,0.00,VWS V14.01,2013-07-16 14:15:00,
2013-07-16 10:20:00,84.0,75.6,30.19,West,261,0.0,5.0,76,0.00,,---,0.00,VWS V14.01,2013-07-16 14:20:00,
2013-07-16 10:25:00,84.5,77.3,30.19,West,262,0.0,5.0,79,0.00,,---,0.00,VWS V14.01,2013-07-16 14:25:00,
2013-07-16 10:30:00,84.8,76.8,30.19,West,262,0.0,0.0,77,0.00,,---,0.00,VWS V14.01,2013-07-16 14:30:00,
2013-07-16 10:35:00,85.2,77.9,30.18,West,262,0.0,0.0,79,0.00,,---,0.00,VWS V14.01,2013-07-16 14:35:00,
2013-07-16 10:40:00,85.4,75.8,30.18,West,262,0.0,0.0,73,0.00,,---,0.00,VWS V14.01,2013-07-16 14:40:00,
2013-07-16 10:45:00,85.7,75.6,30.18,West,269,0.0,3.0,72,0.00,,---,0.00,VWS V14.01,2013-07-16 14:45:00,
2013-07-16 10:50:00,85.9,75.8,30.18,West,266,0.0,3.0,72,0.00,,---,0.00,VWS V14.01,2013-07-16 14:50:00,
2013-07-16 10:55:00,86.2,76.9,30.18,West,266,0.0,3.0,74,0.00,,---,0.00,VWS V14.01,2013-07-16 14:55:00,
2013-07-16 11:00:00,86.3,75.8,30.18,West,266,0.0,3.0,71,0.00,,---,0.00,VWS V14.01,2013-07-16 15:00:00,
2013-07-16 11:05:00,86.7,77.0,30.18,West,266,0.0,0.0,73,0.00,,---,0.00,VWS V14.01,2013-07-16 15:05:00,
2013-07-16 11:10:00,87.0,76.0,30.18,West,266,0.0,0.0,70,0.00,,---,0.00,VWS V14.01,2013-07-16 15:10:00,
2013-07-16 11:15:00,87.4,77.3,30.18,West,266,0.0,0.0,72,0.00,,---,0.00,VWS V14.01,2013-07-16 15:15:00,
2013-07-16 11:20:00,87.5,75.6,30.17,West,266,0.0,0.0,68,0.00,,---,0.00,VWS V14.01,2013-07-16 15:20:00,
2013-07-16 11:25:00,87.9,77.3,30.17,West,266,0.0,0.0,71,0.00,,---,0.00,VWS V14.01,2013-07-16 15:25:00,
2013-07-16 11:30:00,88.3,77.7,30.18,West,266,0.0,0.0,71,0.00,,---,0.00,VWS V14.01,2013-07-16 15:30:00,
2013-07-16 11:35:00,88.6,77.1,30.18,West,266,0.0,0.0,69,0.00,,---,0.00,VWS V14.01,2013-07-16 15:35:00,
2013-07-16 11:40:00,88.7,77.2,30.17,West,266,0.0,0.0,69,0.00,,---,0.00,VWS V14.01,2013-07-16 15:40:00,
2013-07-16 11:45:00,88.9,77.4,30.17,West,266,0.0,0.0,69,0.00,,---,0.00,VWS V14.01,2013-07-16 15:45:00,
2013-07-16 11:50:00,89.2,79.0,30.17,West,266,0.0,0.0,72,0.00,,---,0.00,VWS V14.01,2013-07-16 15:50:00,
2013-07-16 11:55:00,89.3,76.5,30.17,West,266,0.0,0.0,66,0.00,,---,0.00,VWS V14.01,2013-07-16 15:55:00,
2013-07-16 12:00:00,89.3,76.5,30.17,West,266,0.0,0.0,66,0.00,,---,0.00,VWS V14.01,2013-07-16 16:00:00,
2013-07-16 12:05:00,89.4,77.9,30.17,West,267,0.0,0.0,69,0.00,,---,0.00,VWS V14.01,2013-07-16 16:05:00,
2013-07-16 12:10:00,89.4,77.0,30.17,West,266,0.0,0.0,67,0.00,,---,0.00,VWS V14.01,2013-07-16 16:10:00,
2013-07-16 12:15:00,89.5,77.1,30.17,West,267,0.0,0.0,67,0.00,,---,0.00,VWS V14.01,2013-07-16 16:15:00,
2013-07-16 12:20:00,89.3,76.0,30.17,West,266,0.0,0.0,65,0.00,,---,0.00,VWS V14.01,2013-07-16 16:20:00,
2013-07-16 12:25:00,89.3,76.5,30.17,West,266,0.0,0.0,66,0.00,,---,0.00,VWS V14.01,2013-07-16 16:25:00,
2013-07-16 12:30:00,89.3,76.9,30.17,West,266,0.0,0.0,67,0.00,,---,0.00,VWS V14.01,2013-07-16 16:30:00,
2013-07-16 12:35:00,89.6,76.3,30.17,West,266,0.0,0.0,65,0.00,,---,0.00,VWS V14.01,2013-07-16 16:35:00,
2013-07-16 12:40:00,89.9,76.1,30.17,West,266,0.0,0.0,64,0.00,,---,0.00,VWS V14.01,2013-07-16 16:40:00,
2013-07-16 12:45:00,90.2,77.8,30.17,West,266,0.0,0.0,67,0.00,,---,0.00,VWS V14.01,2013-07-16 16:45:00,
2013-07-16 12:50:00,90.5,79.4,30.17,West,266,0.0,0.0,70,0.00,,---,0.00,VWS V14.01,2013-07-16 16:50:00,
2013-07-16 12:55:00,90.7,78.2,30.17,West,266,0.0,0.0,67,0.00,,---,0.00,VWS V14.01,2013-07-16 16:55:00,
2013-07-16 13:00:00,90.8,78.8,30.17,West,266,0.0,0.0,68,0.00,,---,0.00,VWS V14.01,2013-07-16 17:00:00,
2013-07-16 13:05:00,90.9,78.9,30.16,West,266,0.0,0.0,68,0.00,,---,0.00,VWS V14.01,2013-07-16 17:05:00,
2013-07-16 13:10:00,90.9,78.4,30.16,West,266,0.0,0.0,67,0.00,,---,0.00,VWS V14.01,2013-07-16 17:10:00,
2013-07-16 13:15:00,91.2,76.8,30.16,West,266,0.0,0.0,63,0.00,,---,0.00,VWS V14.01,2013-07-16 17:15:00,
2013-07-16 13:20:00,91.2,75.9,30.16,West,266,0.0,0.0,61,0.00,,---,0.00,VWS V14.01,2013-07-16 17:20:00,
2013-07-16 13:25:00,91.1,77.2,30.16,West,266,0.0,0.0,64,0.00,,---,0.00,VWS V14.01,2013-07-16 17:25:00,
2013-07-16 13:30:00,91.2,75.9,30.15,West,266,0.0,0.0,61,0.00,,---,0.00,VWS V14.01,2013-07-16 17:30:00,
2013-07-16 13:35:00,91.3,77.4,30.16,West,263,0.0,0.0,64,0.00,,---,0.00,VWS V14.01,2013-07-16 17:35:00,
2013-07-16 13:40:00,91.4,78.4,30.16,West,263,0.0,0.0,66,0.00,,---,0.00,VWS V14.01,2013-07-16 17:40:00,
2013-07-16 13:45:00,91.5,78.1,30.16,West,263,0.0,0.0,65,0.00,,---,0.00,VWS V14.01,2013-07-16 17:45:00,
2013-07-16 13:50:00,91.7,75.3,30.15,West,263,0.0,0.0,59,0.00,,---,0.00,VWS V14.01,2013-07-16 17:50:00,
2013-07-16 13:55:00,91.9,76.0,30.15,West,263,0.0,0.0,60,0.00,,---,0.00,VWS V14.01,2013-07-16 17:55:00,
2013-07-16 14:00:00,92.0,78.1,30.14,West,263,0.0,0.0,64,0.00,,---,0.00,VWS V14.01,2013-07-16 18:00:00,
2013-07-16 14:05:00,91.8,77.4,30.14,West,263,0.0,0.0,63,0.00,,---,0.00,VWS V14.01,2013-07-16 18:05:00,
2013-07-16 14:10:00,92.0,79.9,30.14,West,263,0.0,0.0,68,0.00,,---,0.00,VWS V14.01,2013-07-16 18:10:00,
2013-07-16 14:15:00,92.0,77.1,30.14,West,267,0.0,2.0,62,0.00,,---,0.00,VWS V14.01,2013-07-16 18:15:00,
2013-07-16 14:20:00,91.9,77.5,30.14,West,267,0.0,2.0,63,0.00,,---,0.00,VWS V14.01,2013-07-16 18:20:00,
2013-07-16 14:25:00,91.9,78.5,30.14,West,267,0.0,2.0,65,0.00,,---,0.00,VWS V14.01,2013-07-16 18:25:00,
2013-07-16 14:30:00,92.2,77.8,30.14,West,267,0.0,2.0,63,0.00,,---,0.00,VWS V14.01,2013-07-16 18:30:00,
2013-07-16 14:35:00,92.5,78.1,30.14,West,267,0.0,0.0,63,0.00,,---,0.00,VWS V14.01,2013-07-16 18:35:00,
2013-07-16 14:40:00,92.7,76.3,30.14,West,267,0.0,1.0,59,0.00,,---,0.00,VWS V14.01,2013-07-16 18:40:00,
2013-07-16 14:45:00,92.8,78.8,30.13,West,267,0.0,1.0,64,0.00,,---,0.00,VWS V14.01,2013-07-16 18:45:00,
2013-07-16 14:50:00,92.9,80.3,30.13,West,267,0.0,1.0,67,0.00,,---,0.00,VWS V14.01,2013-07-16 18:50:00,
2013-07-16 14:55:00,93.0,77.1,30.13,West,267,0.0,1.0,60,0.00,,---,0.00,VWS V14.01,2013-07-16 18:55:00,
2013-07-16 15:00:00,93.2,79.7,30.13,West,267,0.0,1.0,65,0.00,,---,0.00,VWS V14.01,2013-07-16 19:00:00,
2013-07-16 15:05:00,93.3,77.8,30.13,West,267,0.0,0.0,61,0.00,,---,0.00,VWS V14.01,2013-07-16 19:05:00,
2013-07-16 15:10:00,93.4,78.4,30.13,West,267,0.0,0.0,62,0.00,,---,0.00,VWS V14.01,2013-07-16 19:10:00,
2013-07-16 15:15:00,93.5,77.5,30.13,West,267,0.0,0.0,60,0.00,,---,0.00,VWS V14.01,2013-07-16 19:15:00,
2013-07-16 15:20:00,93.3,78.3,30.12,West,267,0.0,0.0,62,0.00,,---,0.00,VWS V14.01,2013-07-16 19:20:00,
2013-07-16 15:25:00,93.2,79.7,30.13,West,267,0.0,0.0,65,0.00,,---,0.00,VWS V14.01,2013-07-16 19:25:00,
2013-07-16 15:30:00,93.1,76.7,30.12,West,267,0.0,0.0,59,0.00,,---,0.00,VWS V14.01,2013-07-16 19:30:00,
2013-07-16 15:35:00,93.1,77.2,30.12,West,267,0.0,0.0,60,0.00,,---,0.00,VWS V14.01,2013-07-16 19:35:00,
2013-07-16 15:40:00,92.9,78.4,30.12,West,267,0.0,0.0,63,0.00,,---,0.00,VWS V14.01,2013-07-16 19:40:00,
2013-07-16 15:45:00,92.5,77.6,30.12,West,267,0.0,0.0,62,0.00,,---,0.00,VWS V14.01,2013-07-16 19:45:00,
2013-07-16 15:50:00,92.5,77.6,30.12,WSW,257,0.0,0.0,62,0.00,,---,0.00,VWS V14.01,2013-07-16 19:50:00,
2013-07-16 15:55:00,92.7,78.3,30.12,WSW,257,0.0,0.0,63,0.00,,---,0.00,VWS V14.01,2013-07-16 19:55:00,
2013-07-16 16:00:00,92.8,77.9,30.12,WSW,257,0.0,0.0,62,0.00,,---,0.00,VWS V14.01,2013-07-16 20:00:00,
2013-07-16 16:05:00,92.6,79.1,30.11,WSW,257,0.0,0.0,65,0.00,,---,0.00,VWS V14.01,2013-07-16 20:05:00,
2013-07-16 16:10:00,92.7,78.3,30.11,WSW,257,0.0,0.0,63,0.00,,---,0.00,VWS V14.01,2013-07-16 20:10:00,
2013-07-16 16:15:00,92.9,78.0,30.11,WSW,257,0.0,0.0,62,0.00,,---,0.00,VWS V14.01,2013-07-16 20:15:00,
2013-07-16 16:20:00,93.1,80.5,30.11,WSW,257,0.0,0.0,67,0.00,,---,0.00,VWS V14.01,2013-07-16 20:20:00,
2013-07-16 16:25:00,93.4,77.4,30.11,WSW,257,0.0,0.0,60,0.00,,---,0.00,VWS V14.01,2013-07-16 20:25:00,
2013-07-16 16:30:00,93.6,77.1,30.11,WSW,257,0.0,0.0,59,0.00,,---,0.00,VWS V14.01,2013-07-16 20:30:00,
2013-07-16 16:35:00,93.7,77.7,30.11,WSW,257,0.0,0.0,60,0.00,,---,0.00,VWS V14.01,2013-07-16 20:35:00,
2013-07-16 16:40:00,93.8,79.3,30.11,WSW,257,0.0,0.0,63,0.00,,---,0.00,VWS V14.01,2013-07-16 20:40:00,
2013-07-16 16:45:00,93.7,79.7,30.11,WSW,257,0.0,0.0,64,0.00,,---,0.00,VWS V14.01,2013-07-16 20:45:00,
2013-07-16 16:50:00,93.8,77.8,30.10,WSW,257,0.0,0.0,60,0.00,,---,0.00,VWS V14.01,2013-07-16 20:50:00,
2013-07-16 16:55:00,93.9,78.9,30.10,WSW,257,0.0,0.0,62,0.00,,---,0.00,VWS V14.01,2013-07-16 20:55:00,
2013-07-16 17:00:00,93.8,78.3,30.10,WSW,257,0.0,0.0,61,0.00,,---,0.00,VWS V14.01,2013-07-16 21:00:00,
2013-07-16 17:05:00,93.5,79.5,30.10,WSW,257,0.0,0.0,64,0.00,,---,0.00,VWS V14.01,2013-07-16 21:05:00,
2013-07-16 17:10:00,93.5,80.0,30.10,WSW,257,0.0,0.0,65,0.00,,---,0.00,VWS V14.01,2013-07-16 21:10:00,
2013-07-16 17:15:00,93.5,78.0,30.10,WSW,257,0.0,0.0,61,0.00,,---,0.00,VWS V14.01,2013-07-16 21:15:00,
2013-07-16 17:20:00,93.6,78.1,30.10,WSW,257,0.0,0.0,61,0.00,,---,0.00,VWS V14.01,2013-07-16 21:20:00,
2013-07-16 17:25:00,93.6,78.6,30.10,WSW,257,0.0,0.0,62,0.00,,---,0.00,VWS V14.01,2013-07-16 21:25:00,
2013-07-16 17:30:00,93.6,79.6,30.10,WSW,257,0.0,0.0,64,0.00,,---,0.00,VWS V14.01,2013-07-16 21:30:00,
2013-07-16 17:35:00,93.6,79.6,30.10,WSW,257,0.0,0.0,64,0.00,,---,0.00,VWS V14.01,2013-07-16 21:35:00,
2013-07-16 17:40:00,93.4,78.9,30.10,WSW,257,0.0,0.0,63,0.00,,---,0.00,VWS V14.01,2013-07-16 21:40:00,
2013-07-16 17:45:00,93.3,78.3,30.10,WSW,257,0.0,0.0,62,0.00,,---,0.00,VWS V14.01,2013-07-16 21:45:00,
2013-07-16 17:50:00,93.1,78.6,30.10,WSW,257,0.0,0.0,63,0.00,,---,0.00,VWS V14.01,2013-07-16 21:50:00,
2013-07-16 17:55:00,92.9,78.0,30.10,WSW,257,0.0,0.0,62,0.00,,---,0.00,VWS V14.01,2013-07-16 21:55:00,
2013-07-16 18:00:00,92.5,78.6,30.10,WSW,257,0.0,0.0,64,0.00,,---,0.00,VWS V14.01,2013-07-16 22:00:00,
2013-07-16 18:05:00,92.2,79.2,30.09,WSW,257,0.0,0.0,66,0.00,,---,0.00,VWS V14.01,2013-07-16 22:05:00,
2013-07-16 18:10:00,91.9,80.3,30.09,WSW,257,0.0,0.0,69,0.00,,---,0.00,VWS V14.01,2013-07-16 22:10:00,
2013-07-16 18:15:00,91.5,79.9,30.09,WSW,257,0.0,0.0,69,0.00,,---,0.00,VWS V14.01,2013-07-16 22:15:00,
2013-07-16 18:20:00,91.3,80.6,30.09,WSW,257,0.0,0.0,71,0.00,,---,0.00,VWS V14.01,2013-07-16 22:20:00,
2013-07-16 18:25:00,91.1,80.8,30.09,WSW,257,0.0,0.0,72,0.00,,---,0.00,VWS V14.01,2013-07-16 22:25:00,
2013-07-16 18:30:00,91.0,80.7,30.09,WSW,257,0.0,0.0,72,0.00,,---,0.00,VWS V14.01,2013-07-16 22:30:00,
2013-07-16 18:35:00,90.9,81.5,30.09,WSW,257,0.0,0.0,74,0.00,,---,0.00,VWS V14.01,2013-07-16 22:35:00,
2013-07-16 18:40:00,90.6,79.9,30.09,WSW,257,0.0,0.0,71,0.00,,---,0.00,VWS V14.01,2013-07-16 22:40:00,
2013-07-16 18:45:00,90.4,81.0,30.10,WSW,257,0.0,0.0,74,0.00,,---,0.00,VWS V14.01,2013-07-16 22:45:00,
2013-07-16 18:50:00,90.2,81.2,30.10,WSW,257,0.0,0.0,75,0.00,,---,0.00,VWS V14.01,2013-07-16 22:50:00,
2013-07-16 18:55:00,90.0,81.8,30.10,WSW,257,0.0,0.0,77,0.00,,---,0.00,VWS V14.01,2013-07-16 22:55:00,
2013-07-16 19:00:00,89.6,81.8,30.10,WSW,257,0.0,0.0,78,0.00,,---,0.00,VWS V14.01,2013-07-16 23:00:00,
2013-07-16 19:05:00,89.3,81.5,30.10,WSW,257,0.0,0.0,78,0.00,,---,0.00,VWS V14.01,2013-07-16 23:05:00,
2013-07-16 19:10:00,88.9,81.6,30.09,WSW,257,0.0,0.0,79,0.00,,---,0.00,VWS V14.01,2013-07-16 23:10:00,
2013-07-16 19:15:00,88.4,81.8,30.09,WSW,257,0.0,0.0,81,0.00,,---,0.00,VWS V14.01,2013-07-16 23:15:00,
2013-07-16 19:20:00,88.0,81.4,30.10,WSW,257,0.0,0.0,81,0.00,,---,0.00,VWS V14.01,2013-07-16 23:20:00,
2013-07-16 19:25:00,87.8,81.6,30.10,WSW,257,0.0,0.0,82,0.00,,---,0.00,VWS V14.01,2013-07-16 23:25:00,
2013-07-16 19:30:00,87.4,80.9,30.10,WSW,257,0.0,0.0,81,0.00,,---,0.00,VWS V14.01,2013-07-16 23:30:00,
2013-07-16 19:35:00,87.2,81.4,30.10,WSW,257,0.0,0.0,83,0.00,,---,0.00,VWS V14.01,2013-07-16 23:35:00,
2013-07-16 19:40:00,86.9,81.1,30.10,WSW,257,0.0,0.0,83,0.00,,---,0.00,VWS V14.01,2013-07-16 23:40:00,
2013-07-16 19:45:00,86.6,80.4,30.10,WSW,257,0.0,0.0,82,0.00,,---,0.00,VWS V14.01,2013-07-16 23:45:00,
2013-07-16 19:50:00,86.1,80.3,30.11,WSW,257,0.0,0.0,83,0.00,,---,0.00,VWS V14.01,2013-07-16 23:50:00,
2013-07-16 19:55:00,85.9,80.5,30.11,WSW,257,0.0,0.0,84,0.00,,---,0.00,VWS V14.01,2013-07-16 23:55:00,
2013-07-16 20:00:00,85.7,80.3,30.10,WSW,257,0.0,0.0,84,0.00,,---,0.00,VWS V14.01,2013-07-17 00:00:00,
2013-07-16 20:05:00,85.4,80.0,30.10,WSW,257,0.0,0.0,84,0.00,,---,0.00,VWS V14.01,2013-07-17 00:05:00,
2013-07-16 20:10:00,84.9,79.9,30.11,WSW,257,0.0,0.0,85,0.00,,---,0.00,VWS V14.01,2013-07-17 00:10:00,
2013-07-16 20:15:00,84.7,80.1,30.11,WSW,257,0.0,0.0,86,0.00,,---,0.00,VWS V14.01,2013-07-17 00:15:00,
2013-07-16 20:20:00,84.4,79.8,30.11,WSW,257,0.0,0.0,86,0.00,,---,0.00,VWS V14.01,2013-07-17 00:20:00,
2013-07-16 20:25:00,84.2,79.9,30.11,WSW,257,0.0,0.0,87,0.00,,---,0.00,VWS V14.01,2013-07-17 00:25:00,
2013-07-16 20:30:00,83.8,79.5,30.12,WSW,257,0.0,2.0,87,0.00,,---,0.00,VWS V14.01,2013-07-17 00:30:00,
2013-07-16 20:35:00,83.3,78.0,30.12,NE,55,0.0,4.0,84,0.00,,---,0.00,VWS V14.01,2013-07-17 00:35:00,
2013-07-16 20:40:00,82.7,77.0,30.14,ESE,117,0.0,4.0,83,0.00,,---,0.00,VWS V14.01,2013-07-17 00:40:00,
2013-07-16 20:45:00,82.2,75.8,30.13,ESE,117,0.0,4.0,81,0.00,,---,0.00,VWS V14.01,2013-07-17 00:45:00,
2013-07-16 20:50:00,81.8,75.4,30.11,ESE,117,0.0,4.0,81,0.00,,---,0.00,VWS V14.01,2013-07-17 00:50:00,
2013-07-16 20:55:00,81.6,75.6,30.12,ESE,117,0.0,4.0,82,0.00,,---,0.00,VWS V14.01,2013-07-17 00:55:00,
2013-07-16 21:00:00,81.3,74.9,30.12,East,98,0.0,4.0,81,0.00,,---,0.00,VWS V14.01,2013-07-17 01:00:00,
2013-07-16 21:05:00,80.9,75.3,30.11,East,98,0.0,0.0,83,0.00,,---,0.00,VWS V14.01,2013-07-17 01:05:00,
2013-07-16 21:10:00,80.6,75.0,30.11,East,98,0.0,0.0,83,0.00,,---,0.00,VWS V14.01,2013-07-17 01:10:00,
2013-07-16 21:15:00,80.3,75.0,30.11,East,98,0.0,0.0,84,0.00,,---,0.00,VWS V14.01,2013-07-17 01:15:00,
2013-07-16 21:20:00,80.0,74.7,30.11,East,98,0.0,0.0,84,0.00,,---,0.00,VWS V14.01,2013-07-17 01:20:00,
2013-07-16 21:25:00,79.7,74.8,30.12,East,98,0.0,0.0,85,0.00,,---,0.00,VWS V14.01,2013-07-17 01:25:00,
2013-07-16 21:30:00,79.4,74.5,30.12,East,98,0.0,0.0,85,0.00,,---,0.00,VWS V14.01,2013-07-17 01:30:00,
2013-07-16 21:35:00,79.1,74.6,30.12,East,98,0.0,0.0,86,0.00,,---,0.00,VWS V14.01,2013-07-17 01:35:00,
2013-07-16 21:40:00,78.9,74.4,30.12,East,98,0.0,0.0,86,0.00,,---,0.00,VWS V14.01,2013-07-17 01:40:00,
2013-07-16 21:45:00,78.6,74.4,30.12,East,98,0.0,0.0,87,0.00,,---,0.00,VWS V14.01,2013-07-17 01:45:00,
2013-07-16 21:50:00,78.4,74.6,30.12,East,98,0.0,0.0,88,0.00,,---,0.00,VWS V14.01,2013-07-17 01:50:00,
2013-07-16 21:55:00,78.2,74.4,30.13,East,98,0.0,0.0,88,0.00,,---,0.00,VWS V14.01,2013-07-17 01:55:00,
2013-07-16 22:00:00,78.0,74.5,30.13,East,98,0.0,0.0,89,0.00,,---,0.00,VWS V14.01,2013-07-17 02:00:00,
2013-07-16 22:05:00,77.8,74.3,30.13,East,98,0.0,0.0,89,0.00,,---,0.00,VWS V14.01,2013-07-17 02:05:00,
2013-07-16 22:10:00,77.5,74.3,30.13,East,98,0.0,0.0,90,0.00,,---,0.00,VWS V14.01,2013-07-17 02:10:00,
2013-07-16 22:15:00,77.1,73.9,30.13,East,98,0.0,1.0,90,0.00,,---,0.00,VWS V14.01,2013-07-17 02:15:00,
2013-07-16 22:20:00,77.0,74.2,30.13,East,98,0.0,1.0,91,0.00,,---,0.00,VWS V14.01,2013-07-17 02:20:00,
2013-07-16 22:25:00,76.9,74.1,30.13,East,98,0.0,1.0,91,0.00,,---,0.00,VWS V14.01,2013-07-17 02:25:00,
2013-07-16 22:30:00,76.7,73.9,30.13,East,98,0.0,1.0,91,0.00,,---,0.00,VWS V14.01,2013-07-17 02:30:00,
2013-07-16 22:35:00,76.6,74.1,30.13,East,98,0.0,0.0,92,0.00,,---,0.00,VWS V14.01,2013-07-17 02:35:00,
2013-07-16 22:40:00,76.5,74.0,30.13,East,98,0.0,0.0,92,0.00,,---,0.00,VWS V14.01,2013-07-17 02:40:00,
2013-07-16 22:45:00,76.4,73.9,30.13,East,98,0.0,0.0,92,0.00,,---,0.00,VWS V14.01,2013-07-17 02:45:00,
2013-07-16 22:50:00,76.3,73.8,30.13,East,98,0.0,0.0,92,0.00,,---,0.00,VWS V14.01,2013-07-17 02:50:00,
2013-07-16 22:55:00,76.2,73.7,30.13,East,98,0.0,0.0,92,0.00,,---,0.00,VWS V14.01,2013-07-17 02:55:00,
2013-07-16 23:00:00,76.2,73.7,30.12,East,98,0.0,0.0,92,0.00,,---,0.00,VWS V14.01,2013-07-17 03:00:00,
2013-07-16 23:05:00,76.1,73.6,30.12,East,98,0.0,0.0,92,0.00,,---,0.00,VWS V14.01,2013-07-17 03:05:00,
2013-07-16 23:10:00,76.0,73.8,30.12,East,98,0.0,0.0,93,0.00,,---,0.00,VWS V14.01,2013-07-17 03:10:00,
2013-07-16 23:15:00,76.0,73.8,30.12,East,98,0.0,0.0,93,0.00,,---,0.00,VWS V14.01,2013-07-17 03:15:00,
2013-07-16 23:20:00,76.0,73.8,30.12,East,98,0.0,0.0,93,0.00,,---,0.00,VWS V14.01,2013-07-17 03:20:00,
2013-07-16 23:25:00,75.8,73.9,30.12,East,98,0.0,0.0,94,0.00,,---,0.00,VWS V14.01,2013-07-17 03:25:00,
2013-07-16 23:30:00,75.7,73.8,30.12,East,98,0.0,0.0,94,0.00,,---,0.00,VWS V14.01,2013-07-17 03:30:00,
2013-07-16 23:35:00,75.7,73.8,30.12,East,98,0.0,0.0,94,0.00,,---,0.00,VWS V14.01,2013-07-17 03:35:00,
2013-07-16 23:40:00,75.7,73.8,30.12,East,98,0.0,0.0,94,0.00,,---,0.00,VWS V14.01,2013-07-17 03:40:00,
2013-07-16 23:45:00,75.6,73.8,30.12,East,98,0.0,0.0,94,0.00,,---,0.00,VWS V14.01,2013-07-17 03:45:00,
2013-07-16 23:50:00,75.6,73.8,30.12,East,98,0.0,0.0,94,0.00,,---,0.00,VWS V14.01,2013-07-17 03:50:00,
2013-07-16 23:55:00,75.6,73.8,30.12,East,98,0.0,0.0,94,0.00,,---,0.00,VWS V14.01,2013-07-17 03:55:00,